SCP
0 0 0 0 0 0 0 0 0 0 0 0 0 0 0 0 0 0 0 0 0 0 0 0 0 0 0 0 0 0 0 0 0 0 0 0 0 0 0 0 0 0 0
0 0 0 0 0 0 0 0 0 0 0 0 0 0 0 0 0 0 0 0 0 0 0 0 0 0 0 0 0 0 0 0 0 0 0 0 0 0 0 0 0 0 0
0 0 0 0 0 0 0 0 0 0 0 0 0 0 0 0 0 0 0 0 0 0 0 0 0 0 0 0 0 0 0 0 0 0 0 0 0 0 0 0 0 0 0
0 0 0 0 0 0 0 0 0 0 0 0 0 0 0 0 0 0 0 0 0 0 0 0 0 0 0 0 0 0 0 0 0 0 0 0 0 0 0 0 0 0 0
0 0 0 0 0 0 0 0 0 0 0 0 0 0 0 0 0 0 0 0 0 0 0 0 0 0 0 0 0 0 0 0 0 0 0 0 0 0 0 0 0 0 0
0 0 0 0 0 0 0 0 0 0 0 0 0 0 0 0 0 0 0 0 0 0 0 0 0 0 0 0 0 0 0 0 0 0 0 0 0 0 0 0 0 0 0
0 0 0 0 0 0 0 0 0 0 0 0 0 0 0 0 0 0 0 0 0 0 0 0 0 0 0 0 0 0 0 0 0 0 0 0 0 0 0 0 0 0 0
0 0 0 0 0 0 0 0 0 0 0 0 0 0 0 0 0 0 0 0 0 0 0 0 0 0 0 0 0 0 0 0 0 0 0 0 0 0 0 0 0 0 0
0 0 0 0 0 0 0 0 0 0 0 0 0 0 0 0 0 0 0 0 0 0 0 0 0 0 0 0 0 0 0 0 0 0 0 0 0 0 0 0 0 0 0
0 0 0 0 0 0 0 0 0 0 0 0 0 0 0 0 0 0 0 0 0 0 0 0 0 0 0 0 0 0 0 0 0 0 0 0 0 0 0 0 0 0 0
0 0 0 0 0 0 0 0 0 0 0 0 0 0 0 0 0 0 0 0 0 0 0 0 0 0 0 0 0 0 0 0 0 0 0 0 0 0 0 0 0 0 0
0 0 0 0 0 0 0 0 0 0 0 0 0 0 0 0 0 0 0 0 0 0 0 0 0 0 0 0 0 0 0 0 0 0 0 0 0 0 0 0 0 0 0
0 0 0 0 0 0 0 0 0 0 0 0 0 0 0 0 0 0 0 0 0 0 0 0 0 0 0 0 0 0 0 0 0 0 0 0 0 0 0 0 0 0 0
0 0 0 0 0 0 0 0 0 0 0 0 0 0 0 0 0 0 0 0 0 0 0 0 0 0 0 0 0 0 0 0 0 0 0 0 0 0 0 0 0 0 0
0 0 0 0 0 0 0 0 0 0 0 0 0 0 0 0 0 0 0 0 0 0 0 0 0 0 0 0 0 0 0 0 0 0 0 0 0 0 0 0 0 0 0
0 0 0 0 0 0 0 0 0 0 0 0 0 0 0 0 0 0 0 0 0 0 0 0 0 0 0 0 0 0 0 0 0 0 0 0 0 0 0 0 0 0 0
0 0 0 0 0 0 0 0 0 0 0 0 0 0 0 0 0 0 0 0 0 0 0 0 0 0 0 0 0 0 0 0 0 0 0 0 0 0 0 0 0 0 0
0 0 0 0 0 0 0 0 0 0 0 0 0 0 0 0 0 0 0 0 0 0 0 0 0 0 0 0 0 0 0 0 0 0 0 0 0 0 0 0 0 0 0
0 0 0 0 0 0 0 0 0 0 0 0 0 0 0 0 0 0 0 0 0 0 0 0 0 0 0 0 0 0 0 0 0 0 0 0 0 0 0 0 0 0 0
0 0 0 0 0 0 0 0 0 0 0 0 0 0 0 0 0 0 0 0 0 0 0 0 0 0 0 0 0 0 0 0 0 0 0 0 0 0 0 0 0 0 0
0 0 0 0 0 0 0 0 0 0 0 0 0 0 0 0 0 0 0 0 0 0 0 0 0 0 0 0 0 0 0 0 0 0 0 0 0 0 0 0 0 0 0
0 0 0 0 0 0 0 0 0 0 0 0 0 0 0 0 0 0 0 0 0 0 0 0 0 0 0 0 0 0 0 0 0 0 0 0 0 0 0 0 0 0 0
0 0 0 0 0 0 0 0 0 0 0 0 0 0 0 0 0 0 0 0 0 0 0 0 0 0 0 0 0 0 0 0 0 0 0 0 0 0 0 0 0 0 0
0 0 0 0 0 0 0 0 0 0 0 0 0 0 0 0 0 0 0 0 0 0 0 0 0 0 0 0 0 0 0 0 0 0 0 0 0 0 0 0 0 0 0
0 0 0 0 0 0 0 0 0 0 0 0 0 0 0 0 0 0 0 0 0 0 0 0 0 0 0 0 0 0 0 0 0 0 0 0 0 0 0 0 0 0 0
0 0 0 0 0 0 0 0 0 0 0 0 0 0 0 0 0 0 0 0 0 0 0 0 0 0 0 0 0 0 0 0 0 0 0 0 0 0 0 0 0 0 0
Wind_Speed
8 8 8 8 9 10 9 10 10 9 9 9 9 8 8 7 6 7 6 6 7 6 4 5 5 4 3 2 2 2 2 1 4 4 3 6 7 8 9 7 7 7 9
6 7 8 9 9 10 10 10 10 11 9 9 9 9 8 7 7 7 7 6 6 6 5 5 4 3 3 3 2 2 1 2 3 7 6 5 7 8 8 9 8 8 7
6 8 9 9 10 10 11 10 10 11 10 9 9 9 8 8 7 7 7 6 6 5 5 4 4 4 3 2 2 2 1 2 2 4 7 5 5 6 8 8 8 7 8
7 8 9 9 9 10 10 10 10 10 11 9 8 8 8 8 7 7 7 7 6 5 4 4 3 3 2 1 1 1 2 2 3 4 6 6 5 6 6 8 10 8 9
7 8 8 8 9 10 10 10 10 9 9 9 9 8 7 6 6 7 6 6 6 5 4 3 3 2 2 1 1 1 2 2 3 4 6 6 6 8 8 7 11 10 9
8 8 8 9 9 10 10 10 10 9 9 9 9 8 7 5 10 11 8 6 5 5 4 3 2 2 1 2 4 4 4 3 4 4 5 7 8 8 8 8 9 10 8
8 8 9 9 10 10 10 10 10 9 9 9 8 7 7 8 12 11 10 6 5 4 3 3 1 1 1 2 4 5 5 6 7 5 6 7 8 8 9 9 8 9 9
9 9 9 10 10 10 9 9 9 8 8 8 7 7 6 7 11 10 10 6 4 3 3 2 2 1 2 3 2 2 3 3 5 3 4 5 5 6 5 6 8 8 8
10 10 10 10 11 11 11 10 8 8 7 6 6 7 7 6 9 10 9 4 3 3 2 2 2 2 4 4 2 3 4 4 6 8 8 8 9 10 8 4 5 6 7
11 10 9 9 11 11 10 9 6 7 7 7 6 5 5 5 8 9 8 4 3 2 2 2 2 3 4 4 2 2 4 4 3 5 5 6 5 6 8 3 3 4 5
8 9 8 8 8 9 8 7 8 8 8 6 6 5 4 4 6 8 8 4 4 3 2 2 2 4 5 5 4 2 4 3 2 3 3 4 3 3 4 4 3 3 4
9 9 9 8 8 8 9 8 7 8 8 7 6 5 3 3 4 6 7 6 5 4 3 2 3 5 5 5 3 3 4 3 1 2 2 3 3 3 4 5 5 5 4
10 10 9 8 7 8 9 10 8 7 7 6 6 5 4 3 3 6 6 6 6 3 3 4 5 5 4 2 2 1 1 1 0 1 2 3 3 4 4 4 4 4 4
11 9 9 9 8 7 6 7 7 8 7 7 6 6 5 4 4 4 3 3 4 3 2 2 3 3 2 0 0 1 1 0 0 1 2 2 3 3 3 3 3 4 4
10 9 8 7 8 7 6 5 6 5 6 8 7 6 7 6 8 10 6 4 4 4 3 1 1 1 1 1 1 1 1 0 0 1 1 2 2 2 2 3 2 2 2
9 8 7 7 6 6 6 4 6 6 8 8 8 8 5 7 9 11 11 10 9 8 4 3 3 4 4 3 3 2 2 2 1 1 1 1 2 2 2 2 2 2 3
8 8 7 7 7 7 7 7 6 5 7 9 10 11 10 10 10 11 11 10 9 8 5 4 4 4 4 3 3 3 2 2 1 1 2 2 2 2 2 2 2 2 2
6 7 7 6 6 7 7 7 6 7 6 5 7 12 12 12 12 11 11 8 5 5 4 5 5 4 4 4 3 3 3 2 2 2 2 2 2 2 2 2 2 2 2
5 4 4 4 5 5 5 5 5 6 5 4 3 5 9 11 11 12 11 6 6 6 5 5 4 4 4 4 4 3 3 3 3 3 3 3 2 2 2 2 2 3 2
3 5 5 5 5 5 5 5 5 5 5 5 6 6 4 4 6 7 7 5 6 6 6 6 5 5 4 4 4 4 4 4 4 4 3 3 3 3 3 3 3 2 2
3 4 5 4 4 5 5 6 6 6 6 7 7 7 11 7 8 7 7 7 7 7 6 6 5 5 5 4 4 5 5 5 4 4 4 4 3 3 3 3 3 3 3
3 4 4 5 5 5 5 5 5 6 7 7 5 5 13 8 6 7 7 7 7 6 5 5 5 5 6 6 6 6 6 6 5 5 5 4 4 4 3 3 3 3 3
3 4 4 4 4 5 5 5 5 6 7 6 6 6 7 7 7 7 7 6 6 6 5 5 5 5 5 5 6 6 7 7 6 6 5 5 4 4 4 4 4 4 4
3 4 4 4 4 5 5 6 6 7 7 7 6 7 7 7 7 7 7 6 5 6 5 6 7 8 9 7 5 6 6 6 5 5 7 6 6 5 4 5 5 5 5
3 4 4 5 5 5 6 6 6 7 7 7 7 7 7 7 7 7 6 6 7 7 8 7 6 7 9 10 8 7 9 10 8 6 6 6 6 6 6 6 5 5 5
4 4 4 4 5 5 6 6 7 7 7 7 7 6 6 7 7 6 6 6 6 6 7 6 8 9 9 8 9 10 11 11 11 10 7 6 7 7 6 5 7 6 5
Wind_Direction
180 172 164 161 154 150 150 148 145 141 142 140 136 131 126 121 120 117 113 114 110 103 97 98 91 84 78 59 50 46 37 344 288 297 309 326 326 328 329 326 322 322 324
162 155 153 148 146 146 144 143 142 139 138 136 133 129 125 123 123 123 121 119 118 114 107 101 93 86 77 60 50 38 11 338 305 307 314 324 322 322 321 321 325 325 317
148 148 146 147 147 145 141 140 139 136 133 130 131 132 130 128 123 120 122 118 114 114 114 111 105 95 81 59 40 18 341 328 308 302 309 311 311 317 324 322 319 317 321
145 146 147 147 144 140 138 138 136 136 135 133 128 127 128 126 124 125 123 119 116 113 111 110 108 102 98 65 19 339 315 312 307 303 307 313 313 320 328 333 333 332 327
147 146 144 135 131 132 133 132 128 127 129 129 126 123 123 124 131 132 128 129 127 122 113 107 104 96 75 45 326 303 307 307 310 313 315 318 324 335 338 332 326 325 321
150 146 140 137 135 135 135 131 127 125 126 126 130 131 131 133 141 140 137 134 134 133 130 121 111 101 40 349 328 320 319 314 311 309 313 317 321 325 324 323 325 330 325
148 145 147 145 141 140 137 133 135 134 132 131 131 133 134 141 144 143 142 137 137 138 140 141 138 149 265 282 302 314 321 317 315 306 302 307 310 318 319 319 322 320 306
155 155 155 151 146 142 139 139 137 136 138 135 137 138 135 144 147 146 144 135 135 140 149 159 172 226 266 281 275 290 294 298 308 308 283 292 299 312 315 312 308 304 287
168 167 165 159 152 150 149 146 140 138 135 135 139 142 141 146 153 153 148 141 146 155 166 178 200 239 281 305 307 297 299 299 317 322 318 319 326 332 337 333 329 328 317
177 168 161 158 157 156 152 145 135 138 137 135 136 140 143 149 164 164 159 151 161 171 182 201 229 256 280 299 282 276 290 299 319 327 328 330 331 333 345 347 323 315 310
156 149 150 152 151 146 138 135 136 133 131 131 133 136 144 158 173 173 174 167 175 180 196 212 239 268 278 287 291 264 285 315 330 318 310 311 319 330 336 334 321 298 292
144 147 149 146 143 141 138 135 136 138 138 139 141 144 156 167 182 187 191 197 188 183 203 212 237 261 272 282 288 295 327 0 353 321 317 317 322 327 326 320 311 298 275
146 150 147 142 140 146 148 147 145 148 151 157 161 168 174 180 197 199 206 210 208 198 205 228 245 257 268 285 292 325 39 53 346 318 309 305 310 312 314 315 313 312 298
152 151 151 150 148 147 150 156 159 165 166 167 173 179 178 186 197 200 201 207 215 217 218 238 258 258 245 201 34 26 50 176 229 271 288 299 310 316 320 328 323 331 327
151 152 154 156 156 157 159 172 172 179 180 176 182 177 178 195 206 200 189 195 193 194 172 157 174 201 217 223 229 233 228 210 227 265 286 300 308 320 320 333 325 330 327
155 160 162 161 160 160 158 153 193 184 194 197 188 182 195 201 198 204 208 210 208 202 186 198 211 215 221 220 221 228 217 219 229 238 253 275 294 304 310 323 324 323 316
165 165 165 167 168 170 171 171 174 192 207 211 208 203 202 202 204 207 210 211 213 207 208 210 212 214 217 216 216 217 221 214 212 229 243 255 276 284 292 306 317 314 309
162 167 169 174 177 178 182 184 182 179 187 208 217 214 209 208 209 209 208 203 213 209 206 209 212 210 209 212 215 218 223 220 215 224 231 236 237 243 263 280 292 292 296
165 169 170 169 174 179 179 180 185 192 198 189 177 216 215 215 213 214 208 204 207 212 210 213 211 208 210 212 214 213 214 218 218 216 223 224 222 221 240 254 267 279 279
175 173 167 168 170 173 178 185 193 199 204 203 207 203 178 178 203 211 209 203 209 215 212 213 211 209 209 209 209 208 213 219 219 220 223 223 220 219 233 245 248 256 257
175 174 170 170 184 188 191 200 202 204 210 217 218 204 194 198 208 209 210 210 212 215 213 213 211 209 209 206 205 210 217 223 220 218 218 216 211 218 226 230 238 242 254
180 182 186 195 194 197 202 204 205 212 219 224 222 217 219 211 211 215 217 218 215 211 206 206 212 211 206 203 202 205 215 223 221 217 218 214 209 213 219 224 231 236 241
190 195 200 204 204 206 208 210 213 218 223 224 217 210 218 219 217 219 221 218 212 211 206 205 213 219 215 210 205 204 213 221 214 205 209 212 210 210 210 218 224 229 233
201 208 212 212 209 214 219 221 221 223 225 225 222 221 221 224 225 224 221 216 213 213 209 209 215 221 221 216 213 213 219 221 207 204 204 209 213 212 210 217 222 225 233
210 217 221 221 221 225 228 229 228 227 226 226 226 227 226 226 229 228 221 216 215 216 217 214 216 221 225 224 221 220 225 229 219 199 197 204 212 211 210 218 219 221 223
222 225 228 228 229 230 232 235 234 231 231 231 229 228 226 226 228 229 223 219 220 222 222 219 220 223 226 226 228 228 228 230 224 210 197 202 209 214 208 215 218 219 221